Regional Weather Roundup
Issued by NWS

Home | Current Version | Previous Version | Graphics & Text | Print | Product List | Glossary On
Versions: 1 2 3 4 5 6 7 8 9 10 11 12 13 14 15 16 17 18 19 20 21 22 23 24 25 26 27 28 29 30 31 32 33 34 35 36 37 38 39 40 41 42 43 44 45 46 47 48 49 50
265
ASUS44 KJAN 270010
RWRMS

MISSISSIPPI HOURLY WEATHER ROUNDUP
NATIONAL WEATHER SERVICE JACKSON MS
600 PM CST MON JAN 26 2015

NOTE: "FAIR: INDICATES FEW OR NO CLOUDS BELOW 12,000 FEET WITH NO
SIGNIFICANT WEATHER AND/OR OBSTRUCTIONS TO VISIBILITY.

MSZ001>002-007>008-010>013-018>021-025>028-034>036-270100-
NORTHWEST MISSISSIPPI

CITY           SKY/WX    TMP DP  RH WIND       PRES   REMARKS
CLARKSDALE     FAIR      48  37  66 SW8       29.99S
CLEVELAND      FAIR      48  41  75 SW9       30.00S
GREENWOOD      CLEAR     46  36  68 SW6       30.01F
6HR MIN TEMP:  44; 6HR MAX TEMP:  50;

GREENVILLE     CLEAR     48  36  63 SW9       30.00F
6HR MIN TEMP:  48; 6HR MAX TEMP:  54;

GRENADA        FAIR      45  34  65 SW3       30.00S
OLIVE BRANCH   PTCLDY    43  34  70 S8        29.95F
OXFORD         FAIR      41  32  70 SW5       29.99S
TUNICA         CLEAR     45  36  70 SW9       29.97S
$$

MSZ003>006-009-014>017-022>024-029>033-037>039-270100-
NORTHEAST MISSISSIPPI

CITY           SKY/WX    TMP DP  RH WIND       PRES   REMARKS
COLUMBUS AFB   CLEAR     42  30  63 SW5       29.98F
6HR MIN TEMP:  42; 6HR MAX TEMP:  50;

CORINTH        FAIR      45  30  57 SW3       29.94F
GOLDN TRIANGLE CLEAR     46  28  49 W5        29.99F
STARKVILLE     FAIR      45  32  61 W3        30.00S
TUPELO         PTCLDY    46  30  53 W6        29.97F
6HR MIN TEMP:  46; 6HR MAX TEMP:  51;

$$

MSZ040-058-270100-
CENTRAL MISSISSIPPI

CITY           SKY/WX    TMP DP  RH WIND       PRES   REMARKS
JACKSON INTL   CLEAR     49  30  48 CALM      30.04F
6HR MIN TEMP:  49; 6HR MAX TEMP:  56;

JACKSON HAWKNS CLEAR     50  32  50 W6        30.05S
6HR MIN TEMP:  49; 6HR MAX TEMP:  55;

MERIDIAN KEY   CLEAR     44  34  67 SW3       30.03S
6HR MIN TEMP:  44; 6HR MAX TEMP:  53;

MERIDIAN NAS   CLEAR     47  31  53 SW5       30.02F
6HR MIN TEMP:  46; 6HR MAX TEMP:  53;

RAYMOND        FAIR      48  45  87 MISG      30.05F
VICKSBURG      CLEAR     49  36  61 S3        30.06S
6HR MIN TEMP:  49; 6HR MAX TEMP:  56;

$$

MSZ059>079-270100-
SOUTH MISSISSIPPI

CITY           SKY/WX    TMP DP  RH WIND       PRES   REMARKS
BROOKHAVEN     FAIR      50  36  57 CALM      30.08R
HATTIESBURG    CLEAR     50  33  52 W3        30.07R
6HR MIN TEMP:  50; 6HR MAX TEMP:  59;

MCCOMB         CLEAR     51  34  52 CALM      30.08R
6HR MIN TEMP:  51; 6HR MAX TEMP:  60;

NATCHEZ        CLEAR     50  34  53 CALM      30.09R
6HR MIN TEMP:  50; 6HR MAX TEMP:  55;

PINE BELT      CLEAR     46  36  66 W3        30.06S
6HR MIN TEMP:  46; 6HR MAX TEMP:  57;

$$

MSZ080>082-270100-
COASTAL MISSISSIPPI

CITY           SKY/WX    TMP DP  RH WIND       PRES   REMARKS
BAY ST LOUIS   CLEAR     48  37  66 CALM      30.07R
BILOXI         CLEAR     55  31  40 N3        30.06R
6HR MIN TEMP:  55; 6HR MAX TEMP:  61;

PASCAGOULA     CLEAR     49  33  54 CALM      30.06
6HR MIN TEMP:  49; 6HR MAX TEMP:  62;

GULFPORT       CLEAR     52  34  50 CALM      30.06R
6HR MIN TEMP:  52; 6HR MAX TEMP:  62;

$$



USA.gov is the U.S. government's official web portal to all federal, state and local government web resources and services.